Buenos Aires, Argentina

11:51 AM America en Junio 23, 2018 (GMT +0000)
Jorge Newbery Aeroparque

Tiempo Historia de SABE - Enero, 2018

Change the Weather History Date:

Sábado, Enero 13, 2018

  Actual Average Record
Temperature  
Temperatura media 76 ° F -  
Temperatura máxima 84 ° F 82 ° F 87 ° F (2002)
Temperatura mínima 69 ° F 68 ° F 62 ° F (1998)
Cooling Degree Days 12    
Growing Degree Days 26 (Base 50)    
Moisture  
Punto de rocío 69 ° F    
Average Humidity 73    
Maximum Humidity 89    
Minimum Humidity 58    
Precipitación  
Precipitación 0.39 pul 0.13 pul - ()
Presión al nivel del mar  
Presión al nivel del mar 29.74 pul    
Viento  
Velocidad del viento 7 mph ()    
Velocidad máxima del viento 17 mph    
Max Gust Speed 26 mph    
Visibilidad 5.3 Millas    
Eventos Lluvia    
Averages and records for this station are not official NWS values.
T = Trace of Precipitation, MM = Missing Value Source: Averaged Metar Reports

Daily Weather History Graph

Daily Weather History Graph

Search for Another Location

Airport or City:

Astronomía

Jan. 13, 2018 Salida Puesta
Hora real 5:54 AM -03 8:09 PM -03
Crepúsculo civil 5:26 AM -03 8:38 PM -03
Crepúsculo náutico 4:50 AM -03 9:13 PM -03
Crepúsculo astronómico 4:12 AM -03 9:51 PM -03
Luna 3:15 AM -03 (1/13) 5:25 PM -03 (1/13)
Horas de luz 15h 12m
Horas de luz
14h 14m
Creciente menguante, 10% of the Moon is Illuminated
Ene 13
Creciente menguante
Ene 16
Nueva
Ene 24
Cuarto creciente
Ene 31
Luna llena
Feb 7
Cuarto menguante

Hourly Weather History & Observations

Hora (-03) Temp. Índice de calor Punto de rocío Humedad Presión Visibilidad Wind Dir Velocidad del viento Velocidad de ráfagas Precip Eventos Condiciones
12:00 AM 75 ° F - 67 ° F 69% 29.73 pul 6 mi NO 8.1 mph - -   Nubes dispersas
12:00 AM 75.2 ° F - 66.2 ° F 73% 29.71 pul - NNO 8.1 mph - N/A   Despejado
1:00 AM 75.2 ° F - 66.2 ° F 73% 29.71 pul - NNO 3.5 mph - N/A   Despejado
2:00 AM 75.2 ° F - 68.0 ° F 78% 29.71 pul - NNO 3.5 mph - N/A   Despejado
3:00 AM 76 ° F - 68 ° F 69% 29.72 pul 6 mi Este 2.3 mph - -   Muy nublado
3:00 AM 77.0 ° F - 66.2 ° F 69% 29.71 pul - Este 2.3 mph - N/A   Despejado
4:00 AM 77.0 ° F - 68.0 ° F 74% 29.71 pul - NE 4.6 mph - N/A   Despejado
5:00 AM 77.0 ° F - 68.0 ° F 74% 29.71 pul 6.2 mi Variable 2.3 mph - N/A   Parcialmente nublado
6:00 AM 77 ° F - 70 ° F 72% 29.72 pul 6 mi NE 5.8 mph - -   Nubes dispersas
6:00 AM 77.0 ° F - 69.8 ° F 78% 29.71 pul 6.2 mi ENE 6.9 mph - N/A   Nubes dispersas
7:00 AM 78.8 ° F - 69.8 ° F 74% 29.74 pul 6.2 mi Este 2.3 mph - N/A   Muy nublado
8:00 AM 78.8 ° F - 69.8 ° F 74% 29.77 pul 6.2 mi SSE 2.3 mph - N/A   Nubes dispersas
9:00 AM 82 ° F - 71 ° F 60% 29.77 pul 6 mi ESE 8.1 mph - -   Parcialmente nublado
9:00 AM 82.4 ° F 86.3 ° F 69.8 ° F 66% 29.74 pul 6.2 mi ESE 8.1 mph - N/A   Nubes dispersas
10:00 AM 78.8 ° F - 69.8 ° F 74% 29.77 pul 6.2 mi ESE 11.5 mph - N/A   Nubes dispersas
11:00 AM 82.4 ° F 86.3 ° F 69.8 ° F 66% 29.74 pul 6.2 mi Este 10.4 mph - N/A   Nubes dispersas
12:00 PM 83 ° F - 71 ° F 59% 29.76 pul 6 mi ESE 12.7 mph - -   Parcialmente nublado
12:00 PM 82.4 ° F 87.2 ° F 71.6 ° F 70% 29.74 pul 6.2 mi Este 12.7 mph - N/A   Nubes dispersas
1:00 PM 82.4 ° F 86.3 ° F 69.8 ° F 66% 29.74 pul 6.2 mi Este 12.7 mph - N/A   Nubes dispersas
2:00 PM 82.4 ° F 86.3 ° F 69.8 ° F 66% 29.74 pul 6.2 mi Este 12.7 mph - N/A   Nubes dispersas
3:00 PM 84.2 ° F 87.3 ° F 68.0 ° F 58% 29.74 pul 6.2 mi Este 10.4 mph - N/A   Muy nublado
4:00 PM 82.4 ° F 84.6 ° F 66.2 ° F 58% 29.74 pul 6.2 mi Este 11.5 mph - N/A   Muy nublado
4:22 PM 80.6 ° F 83.9 ° F 69.8 ° F 70% 29.74 pul 3.1 mi SE 17.3 mph - N/A Lluvia Lluvias
4:28 PM 80.6 ° F 83.9 ° F 69.8 ° F 70% 29.74 pul 1.9 mi SE 17.3 mph - N/A Lluvia Lluvia débil
4:35 PM 77.0 ° F - 71.6 ° F 83% 29.74 pul 0.6 mi SSE 9.2 mph - N/A Lluvia Lluvias fuertes
4:37 PM 75.2 ° F - 71.6 ° F 89% 29.74 pul 0.3 mi Sur 8.1 mph - N/A Lluvia Lluvias fuertes
4:49 PM 75.2 ° F - 71.6 ° F 89% 29.74 pul 1.9 mi Sur 5.8 mph - N/A Lluvia Lluvia débil
5:00 PM 75.2 ° F - 71.6 ° F 89% 29.74 pul 3.1 mi SE 5.8 mph - N/A Lluvia Lluvia débil
5:45 PM 75.2 ° F - 69.8 ° F 83% 29.71 pul 6.2 mi SSE 11.5 mph - N/A   Muy nublado
6:00 PM 75 ° F - 70 ° F 81% 29.74 pul 6 mi SSE 13.8 mph - - Lluvia Lluvia débil
6:00 PM 75.2 ° F - 69.8 ° F 83% 29.74 pul 6.2 mi SSE 11.5 mph - N/A   Muy nublado
7:00 PM 75.2 ° F - 69.8 ° F 83% 29.74 pul 6.2 mi SSE 15.0 mph 26.5 mph N/A   Muy nublado
8:00 PM 75.2 ° F - 66.2 ° F 73% 29.77 pul 6.2 mi SSE 16.1 mph - N/A   Nubes dispersas
9:00 PM 73 ° F - 64 ° F 67% 29.81 pul 6 mi SSE 11.5 mph - -   Parcialmente nublado
9:00 PM 73.4 ° F - 64.4 ° F 73% 29.80 pul 6.2 mi Sur 16.1 mph - N/A   Muy nublado
10:00 PM 69.8 ° F - 62.6 ° F 78% 29.83 pul 6.2 mi Sur 16.1 mph - N/A   Nublado
11:00 PM 69.8 ° F - 62.6 ° F 78% 29.83 pul 6.2 mi SSE 13.8 mph - N/A   Nublado